Flag for Netherlands Weather past 2 weeks in Hoofddorp, Netherlands

Now
72 °F

Passing clouds.


Feels Like: 76 °F
Forecast: 67 / 83 °F
Wind: 10 mph from Southeast

Location: Amsterdam Schiphol Airport

Current Time: Jul 1, 2015 at 9:19:01 AM

Latest Report: Jul 1, 2015 at 8:55 AM


Visibility: N/A

Pressure: 30.07 "Hg

Humidity: 57%

Dew point: 55 °F

Location of HoofddorpLocation

Historic Weather in Hoofddorp — Graph

°F

Hoofddorp temperature yesterday

Maximum temperature yesterday: 79 °F (at 2:55 PM)
Minimum temperature yesterday: 54 °F (at 4:25 AM)
Average temperature yesterday: 68 °F

Past Weeks' High & Low Weather Summary

 TemperatureHumidityPressure
High79 °F (Jun 30, 2:55 PM)100% (Jun 17, 10:55 PM)30.30 "Hg (Jun 17, 10:55 PM)
Low46 °F (Jun 17, 5:25 AM)23% (Jun 26, 4:55 PM)29.68 "Hg (Jun 22, 7:25 PM)
Average61 °F73%30.07 "Hg
* Reported Jun 16 7:25 AM — Jul 1 7:55 AM, Hoofddorp, Weather by CustomWeather, © 2015

Note: Actual official high and low records may vary slightly from our data, if they occured in-between our weather recording intervals... More about our weather records

Advertising

Hoofddorp weather history for previous 24 hours

 ConditionsComfort  
Time TempWeatherWind HumidityBarometerVisibility
7:55 AM
Wed, Jul 1
68 °FPassing clouds.8 mph64%30.07 "HgN/A
7:25 AM66 °FPassing clouds.9 mph68%30.07 "HgN/A
6:55 AM64 °FSunny.8 mph68%30.07 "Hg10 mi
6:25 AM63 °FPassing clouds.7 mph73%30.07 "HgN/A
5:55 AM63 °FClear.7 mph73%30.07 "Hg10 mi
5:25 AM63 °FClear.8 mph73%30.07 "Hg10 mi
4:55 AM63 °FClear.8 mph73%30.07 "Hg10 mi
4:25 AM64 °FClear.9 mph68%30.07 "Hg10 mi
3:55 AM64 °FClear.9 mph68%30.07 "Hg10 mi
3:25 AM64 °FClear.10 mph68%30.07 "Hg10 mi
2:55 AM64 °FClear.10 mph68%30.07 "Hg10 mi
2:25 AM66 °FClear.9 mph64%30.09 "Hg10 mi
1:55 AM66 °FClear.12 mph64%30.09 "Hg10 mi
1:25 AM66 °FClear.10 mph64%30.09 "Hg10 mi
12:55 AM66 °FClear.9 mph64%30.09 "Hg10 mi
12:25 AM64 °FClear.9 mph64%30.09 "Hg10 mi
11:55 PM
Tue, Jun 30
66 °FClear.10 mph60%30.09 "Hg10 mi
11:25 PM70 °FClear.9 mph53%30.09 "Hg10 mi
10:55 PM70 °FSunny.10 mph57%30.09 "Hg10 mi
10:25 PM70 °FSunny.9 mph64%30.09 "Hg10 mi
9:55 PM72 °FSunny.10 mph61%30.09 "Hg10 mi
9:25 PM73 °FSunny.10 mph57%30.09 "Hg10 mi
8:55 PM75 °FSunny.9 mph50%30.09 "Hg10 mi
8:25 PM75 °FSunny.12 mph50%30.09 "Hg10 mi
7:55 PM77 °FSunny.12 mph51%30.09 "Hg10 mi
6:55 PM77 °FPassing clouds.12 mph51%30.09 "HgN/A
6:25 PM79 °FSunny.12 mph48%30.09 "Hg10 mi
5:55 PM79 °FPassing clouds.10 mph48%30.12 "HgN/A
4:55 PM79 °FPassing clouds.10 mph48%30.12 "HgN/A
4:25 PM79 °FPassing clouds.9 mph48%30.12 "HgN/A
3:55 PM79 °FPassing clouds.9 mph48%30.15 "HgN/A
2:55 PM79 °FPassing clouds.8 mph48%30.15 "HgN/A
2:25 PM77 °FSunny.9 mph47%30.15 "Hg10 mi
1:55 PM77 °FPassing clouds.8 mph51%30.15 "HgN/A
1:25 PM75 °FPassing clouds.7 mph47%30.18 "HgN/A
12:55 PM75 °FPassing clouds.6 mph50%30.18 "HgN/A
12:25 PM75 °FPassing clouds.7 mph50%30.18 "HgN/A
11:55 AM73 °FPassing clouds.7 mph50%30.18 "HgN/A
11:25 AM73 °FPassing clouds.6 mph53%30.18 "HgN/A
10:55 AM72 °FPassing clouds.7 mph53%30.18 "HgN/A
10:25 AM72 °FPassing clouds.6 mph57%30.18 "HgN/A
9:55 AM70 °FPassing clouds.5 mph60%30.18 "HgN/A
9:25 AM68 °FPassing clouds.6 mph64%30.18 "HgN/A
Weather by CustomWeather, © 2015

See weather overviewHow to use our weather pages